User: anonymous   Login
Location: Donald C. Martin Observatory
(38.3885°N, 82.3916°W)
Time: 23:58:31
(UTC-05:00)
Language:

Cosmos 1484 Rocket - Orbit

View from above orbital plane
View from above orbital plane
View from above satellite
View from above satellite

Ground track
Ground track

The orbit data is extracted from the following two-line orbital elements,

1 14208U 83075B   14354.52829263  .00006342  00000-0  40869-3 0  2013
2 14208 097.4034 024.6790 0042294 026.1256 334.2094 15.07913908710270
Epoch (UTC): 20 December 2014 12:40:44
Eccentricity: 0.0042294
inclination: 97.4034°
perigee height: 513 km
apogee height: 572 km
right ascension of ascending node: 24.6790°
argument of perigee: 26.1256°
revolutions per day: 15.07913908
mean anomaly at epoch: 334.2094°
orbit number at epoch: 71027

The dashed part of the orbit path shows where the satellite is in the earth's shadow,  

DLR